Heraklion, Greece

11:26 AM EET on February 13, 2016 (GMT +0200)
Nikos Kazantzakis

Weather History for LGIR - January, 2014

Change the Weather History Date:

Sunday, January 12, 2014

  Actual Average Record
Temperature  
Mean Temperature 58 °F -  
Max Temperature 65 °F 59 °F 73 °F (2016)
Min Temperature 51 °F 48 °F 50 °F (2015)
Degree Days  
Heating Degree Days 7    
Growing Degree Days 8 (Base 50)    
Moisture  
Dew Point 51 °F    
Average Humidity 75    
Maximum Humidity 88    
Minimum Humidity 57    
Precipitation  
Precipitation 0.00 in 0.11 in - ()
Sea Level Pressure  
Sea Level Pressure 30.17 in    
Wind  
Wind Speed 6 mph ()    
Max Wind Speed 14 mph    
Max Gust Speed -    
Visibility 6.8 miles    
Events      
Averages and records for this station are not official NWS values.
T = Trace of Precipitation, MM = Missing Value Source: Averaged Metar Reports

Daily Weather History Graph

Daily Weather History Graph

Search for Another Location

Airport or City:

Trip Planner

Search our weather history database for the weather conditions in past years. The results will help you decide how hot, cold, wet, or windy it might be!

Date:

Astronomy

Jan. 12, 2014 Rise Set
Actual Time 7:28 AM EET 5:27 PM EET
Civil Twilight 7:00 AM EET 5:54 PM EET
Nautical Twilight 6:29 AM EET 6:26 PM EET
Astronomical Twilight 5:58 AM EET 6:56 PM EET
Moon 2:39 PM EET (1/12) 4:11 AM EET (1/12)
Length of Visible Light 10h 54m
Length of Day
9h 58m
Waxing Gibbous, 88% of the Moon is Illuminated
Jan 12
Waxing Gibbous
Jan 16
Full
Jan 24
Last Quarter
Jan 30
New
Feb 6
First Quarter

Hourly Weather History & Observations

Time (EET) Temp. Dew Point Humidity Pressure Visibility Wind Dir Wind Speed Gust Speed Precip Events Conditions
12:20 AM 57.2 °F 50.0 °F 77% 30.21 in 6.2 mi South 3.5 mph - N/A   Scattered Clouds
12:50 AM 57.2 °F 50.0 °F 77% 30.21 in 6.2 mi South 4.6 mph - N/A   Scattered Clouds
1:20 AM 57.2 °F 50.0 °F 77% 30.21 in 6.2 mi South 8.1 mph - N/A   Scattered Clouds
1:50 AM 53.6 °F 48.2 °F 82% 30.21 in 6.2 mi South 10.4 mph - N/A   Scattered Clouds
2:00 AM 53 °F 48 °F 78% 30.22 in 9 mi South 10.4 mph - -   Scattered Clouds
2:20 AM 53.6 °F 48.2 °F 82% 30.21 in 6.2 mi SSW 4.6 mph - N/A   Scattered Clouds
2:50 AM 53.6 °F 48.2 °F 82% 30.21 in 6.2 mi South 10.4 mph - N/A   Scattered Clouds
3:50 AM 53.6 °F 48.2 °F 82% 30.21 in 6.2 mi South 8.1 mph - N/A   Scattered Clouds
4:50 AM 53.6 °F 48.2 °F 82% 30.18 in 6.2 mi South 9.2 mph - N/A   Partly Cloudy
5:00 AM 54 °F 49 °F 76% 30.21 in 9 mi South 9.2 mph - -   Scattered Clouds
5:20 AM 53.6 °F 48.2 °F 82% 30.18 in 6.2 mi South 6.9 mph - N/A   Partly Cloudy
5:50 AM 53.6 °F 48.2 °F 82% 30.18 in 6.2 mi SSW 5.8 mph - N/A   Partly Cloudy
6:20 AM 53.6 °F 48.2 °F 82% 30.18 in 6.2 mi South 3.5 mph - N/A   Partly Cloudy
6:50 AM 51.8 °F 48.2 °F 88% 30.18 in 6.2 mi SSW 3.5 mph - N/A   Partly Cloudy
7:20 AM 51.8 °F 48.2 °F 88% 30.18 in 6.2 mi South 6.9 mph - N/A   Partly Cloudy
7:50 AM 55.4 °F 48.2 °F 77% 30.21 in 6.2 mi South 5.8 mph - N/A   Partly Cloudy
8:00 AM 55 °F 49 °F 73% 30.22 in 12 mi South 5.8 mph - -   Scattered Clouds
8:20 AM 57.2 °F 50.0 °F 77% 30.21 in 6.2 mi South 6.9 mph - N/A   Partly Cloudy
8:50 AM 59.0 °F 51.8 °F 77% 30.21 in 6.2 mi SW 5.8 mph - N/A   Partly Cloudy
9:20 AM 59.0 °F 51.8 °F 77% 30.21 in 6.2 mi SW 5.8 mph - N/A   Partly Cloudy
9:50 AM 62.6 °F 50.0 °F 63% 30.21 in 6.2 mi SW 6.9 mph - N/A   Partly Cloudy
10:20 AM 62.6 °F 50.0 °F 63% 30.21 in 6.2 mi SW 6.9 mph - N/A   Partly Cloudy
10:50 AM 62.6 °F 51.8 °F 68% 30.21 in 6.2 mi West 5.8 mph - N/A   Scattered Clouds
11:00 AM 62 °F 51 °F 58% 30.23 in 12 mi West 5.8 mph - -   Partly Cloudy
11:20 AM 62.6 °F 53.6 °F 72% 30.21 in 6.2 mi West 6.9 mph - N/A   Scattered Clouds
11:50 AM 62.6 °F 51.8 °F 68% 30.18 in 6.2 mi Variable 3.5 mph - N/A   Scattered Clouds
12:20 PM 62.6 °F 51.8 °F 68% 30.18 in 6.2 mi NW 4.6 mph - N/A   Scattered Clouds
12:50 PM 62.6 °F 51.8 °F 68% 30.18 in 6.2 mi WNW 13.8 mph - N/A   Scattered Clouds
1:20 PM 64.4 °F 51.8 °F 64% 30.15 in 6.2 mi NW 13.8 mph - N/A   Partly Cloudy
1:50 PM 64.4 °F 53.6 °F 68% 30.15 in 6.2 mi NW 13.8 mph - N/A   Partly Cloudy
2:00 PM 64 °F 53 °F 60% 30.16 in 12 mi NW 13.8 mph - -   Scattered Clouds
2:20 PM 64.4 °F 53.6 °F 68% 30.15 in 6.2 mi NW 13.8 mph - N/A   Partly Cloudy
2:50 PM 64.4 °F 51.8 °F 64% 30.12 in 6.2 mi NW 12.7 mph - N/A   Partly Cloudy
3:20 PM 64.4 °F 51.8 °F 64% 30.12 in 6.2 mi NW 13.8 mph - N/A   Partly Cloudy
3:50 PM 62.6 °F 53.6 °F 72% 30.12 in 6.2 mi NW 12.7 mph - N/A   Partly Cloudy
4:20 PM 62.6 °F 53.6 °F 72% 30.12 in 6.2 mi NW 11.5 mph - N/A   Partly Cloudy
4:50 PM 60.8 °F 50.0 °F 68% 30.12 in 6.2 mi NW 9.2 mph - N/A   Scattered Clouds
5:00 PM 62 °F 51 °F 57% 30.14 in 12 mi NW 9.2 mph - -   Partly Cloudy
5:20 PM 60.8 °F 50.0 °F 68% 30.12 in 6.2 mi NW 6.9 mph - N/A   Scattered Clouds
5:50 PM 59.0 °F 51.8 °F 77% 30.12 in 6.2 mi Variable 3.5 mph - N/A   Scattered Clouds
6:20 PM 59.0 °F 51.8 °F 77% 30.12 in 6.2 mi Variable 3.5 mph - N/A   Scattered Clouds
6:50 PM 57.2 °F 51.8 °F 82% 30.15 in 6.2 mi Variable 3.5 mph - N/A   Scattered Clouds
7:20 PM 57.2 °F 51.8 °F 82% 30.15 in 6.2 mi South 4.6 mph - N/A   Scattered Clouds
7:50 PM 57.2 °F 51.8 °F 82% 30.15 in 6.2 mi South 4.6 mph - N/A   Mostly Cloudy
8:00 PM 58 °F 51 °F 72% 30.15 in 9 mi South 4.6 mph - -   Mostly Cloudy
8:20 PM 57.2 °F 51.8 °F 82% 30.15 in 6.2 mi South 4.6 mph - N/A   Mostly Cloudy
8:50 PM 57.2 °F 51.8 °F 82% 30.15 in 6.2 mi South 4.6 mph - N/A   Scattered Clouds
9:20 PM 57.2 °F 51.8 °F 82% 30.15 in 6.2 mi South 4.6 mph - N/A   Scattered Clouds
9:50 PM 57.2 °F 51.8 °F 82% 30.15 in 6.2 mi Variable 3.5 mph - N/A   Scattered Clouds
10:20 PM 57.2 °F 51.8 °F 82% 30.15 in 6.2 mi South 4.6 mph - N/A   Scattered Clouds
10:50 PM 57.2 °F 51.8 °F 82% 30.15 in 6.2 mi South 5.8 mph - N/A   Scattered Clouds
11:00 PM 57 °F 52 °F 77% 30.16 in 9 mi South 5.8 mph - -   Partly Cloudy
11:50 PM 57.2 °F 51.8 °F 82% 30.15 in 6.2 mi Variable 3.5 mph - N/A   Scattered Clouds